Regional Weather Roundup
Issued by NWS

Home | Current Version | Previous Version | Text Only | Print | Product List | Glossary Off
Versions: 1 2 3 4 5 6 7 8 9 10 11 12 13 14 15 16 17 18 19 20 21 22 23 24 25 26 27 28 29 30 31 32 33 34 35 36 37 38 39 40 41 42 43 44 45 46 47 48 49 50

000
ASUS43 KMPX 190610
RWRMN
WEATHER ROUNDUP FOR MINNESOTA
NATIONAL WEATHER SERVICE TWIN CITIES/CHANHASSEN MN
100 AM CDT SAT APR 19 2014


NOTE: "FAIR" INDICATES FEW OR NO CLOUDS BELOW 12,000 FEET WITH NO
SIGNIFICANT WEATHER AND/OR OBSTRUCTIONS TO VISIBILITY. N/A MEANS
CURRENT SKY AND/OR WEATHER CONDITIONS ARE NOT AVAILABLE.

MNZ060>063-068>070-190700-
   Twin Cities Metro

CITY           SKY/WX    TMP DP  RH WIND       PRES   REMARKS
TWIN CITIES    MOCLDY    44  27  51 E15       30.18F
6HR MIN TEMP:  44; 6HR MAX TEMP:  51;

ST PAUL        FAIR      44  28  53 SE10      30.20F
CRYSTAL        FAIR      44  26  49 SE10      30.16F
BLAINE         FAIR      45  28  53 E14G21    30.17F
EDEN PRAIRIE   FAIR      46  27  47 SE18G24   30.15F
6HR MIN TEMP:  46; 6HR MAX TEMP:  52;

LAKEVILLE      FAIR      39  30  70 E9        30.18S
SOUTH ST PAUL  FAIR      47  28  46 SE9       30.20S
LAKE ELMO      FAIR      43  28  56 E9G16     30.21S
$$
MNZ001>005-007-008-013>017-022>024-027-028-190700-
   Northwest Minnesota

CITY           SKY/WX    TMP DP  RH WIND       PRES   REMARKS
BEMIDJI        CLOUDY    39  20  47 SE20G32   30.04F
HALLOCK        DRIZZLE   43  28  56 SE25G37   29.85F
ROSEAU         CLOUDY    41  27  56 E20       29.99F
WARROAD        CLOUDY    37  28  70 E20G29    30.04F
THIEF RVR FALL CLOUDY    37  27  65 E24       29.90F
FOSSTON        CLOUDY    39  28  65 SE22G35   29.93F
DETROIT LAKES  FAIR      43  28  56 SE26G38   29.95F
MOORHEAD       FAIR      46  30  53 SE33G46   29.82F
PARK RAPIDS    CLOUDY    42  22  44 SE20G30   30.04S
$$
MNZ006-009>011-018-025>026-190700-
   North Central Minnesota

CITY           SKY/WX    TMP DP  RH WIND       PRES   REMARKS
BAUDETTE       CLOUDY    36  26  67 SE22G31   30.10F
FLAG ISLAND    LGT SNOW  34  30  86 SE13G21   30.09F WCI  25
INTL FALLS     CLOUDY    37  18  46 SE14      30.20F
6HR MIN TEMP:  36; 6HR MAX TEMP:  43;

WASKISH        CLOUDY    39  21  48 E21G30    30.08F
BIG FORK       MOCLDY    36  18  48 E14       30.17F
LONGVILLE      CLOUDY    39  21  48 SE12G17   30.12S
GRAND RAPIDS   CLOUDY    36  18  48 SE13G20   30.17F
CRANE LAKE     CLOUDY    34  21  60 SE3       30.29F
ORR            CLOUDY    34  19  55 E10       30.20F WCI  26
COOK           CLOUDY    34  21  60 SE8       30.24F WCI  27
$$
MNZ012-019>021-037-190700-
   Northeast Minnesota

CITY           SKY/WX    TMP DP  RH WIND       PRES   REMARKS
DULUTH         FAIR      31  22  69 E17       30.26F WCI  19
6HR MIN TEMP:  31; 6HR MAX TEMP:  36;

ELY            CLOUDY    32  19  59 SE13      30.29F WCI  22
HIBBING        CLOUDY    34  19  54 SE12      30.23F WCI  25
EVELETH        CLOUDY    32  19  59 E9        30.26F WCI  24
DULUTH HARBOR  FAIR      32  28  86 NE10      30.32F WCI  24
TWO HARBORS    CLOUDY    30  21  69 E12       30.30S WCI  21
SILVER BAY     FAIR      28  27  93 NE7       30.33S WCI  21
GRAND MARAIS     N/A     33  23  66 NE7       30.40F WCI  27
G MARAIS ARPRT FAIR      27  18  69 E7        30.35F WCI  19
$$
MNZ029>031-032-039>041-046>048-054>057-064-190700-
   West Central Minnesota

CITY           SKY/WX    TMP DP  RH WIND       PRES   REMARKS
FERGUS FALLS   FAIR      45  27  49 SE35G43   29.89F
WHEATON        FAIR      46  37  71 SE30G38   29.89S
MORRIS         FAIR      46  34  61 SE32G41   29.92F
ALEXANDRIA     FAIR      41  28  60 SE21G31   30.01F
ELBOW LAKE     FAIR      43  31  62 SE25G37   29.93F
WADENA         MOCLDY    41  25  52 SE26      30.01F
GLENWOOD       FAIR      41  30  65 SE24      30.01F
APPLETON       FAIR      45  36  70 SE21G30   29.95S
BENSON         FAIR      45  34  65 S22G29    29.98F
ORTONVILLE     FAIR      46  34  61 SE24G31   29.90S
MADISON        FAIR      48  37  66 SE25      29.93S
WILLMAR        FAIR      43  32  65 SE23G31   30.03F
$$
MNZ033>034-036-042>043-049>051-058-059-190700-
   Central Minnesota

CITY           SKY/WX    TMP DP  RH WIND       PRES   REMARKS
ST CLOUD       FAIR      43  26  51 SE14G21   30.11F
6HR MIN TEMP:  41; 6HR MAX TEMP:  45;

SAUK CENTRE    FAIR      40  28  62 E18G24    30.04F
PAYNESVILLE    FAIR      44  28  54 SE21G29   30.06F
AITKIN         CLOUDY    41  21  45 E12G20    30.14F
PINE RIVER     CLOUDY    39  25  56 SE15G22   30.14S
BRAINERD       CLOUDY    45  22  40 SE14G23   30.12F
STAPLES        CLOUDY    43  23  45 SE14G22   30.06F
LONG PRAIRIE   FAIR      39  27  60 E18G26    30.06F
LITTLE FALLS   FAIR      41  25  52 E16G23    30.09F
LITCHFIELD     FAIR      43  30  61 SE20      30.09F
BUFFALO        FAIR      40  29  65 E8        30.14F
MAPLE LAKE     FAIR      41  31  67 E8        30.14F
$$
MNZ037-044-045-052-053-190700-
   East Central Minnesota

CITY           SKY/WX    TMP DP  RH WIND       PRES   REMARKS
PRINCETON      FAIR      43  27  52 E13G20    30.15F
MORA           CLOUDY    37  23  56 E12       30.19F
CAMBRIDGE      FAIR      45  28  53 E12G17    30.16F
RUSH CITY      FAIR      41  25  53 E10       30.20F
MOOSE LAKE     FAIR      34  23  64 E5        30.21F WCI  30
HINCKLEY       FAIR      41  23  48 E9        30.21F
CLOQUET        FAIR      32  21  64 E8G18     30.24F WCI  25
MCGREGOR       CLOUDY    36  25  64 E14G20    30.19S
$$
MNZ071>073-080-081-089-090-097-098-190700-
   Southwest Minnesota

CITY           SKY/WX    TMP DP  RH WIND       PRES   REMARKS
MONTEVIDEO     FAIR      46  36  66 S23G33    29.97F
GRANITE FALLS  FAIR      46  33  61 E24G32    30.00F
CANBY          FAIR      46  37  70 SE16      29.93F
MARSHALL       FAIR      48  34  57 SE17G24   29.96F
REDWOOD FALLS  FAIR      46  33  60 SE18      30.03F
OLIVIA         FAIR      43  34  70 SE18      30.03F
PIPESTONE      FAIR      54  37  54 S22G29    29.93S
WINDOM         FAIR      48  32  53 SE20      30.03F
WORTHINGTON    FAIR      48  30  49 SE17G25   30.02F
JACKSON        FAIR      48  32  53 SE17      30.06F
TRACY          FAIR      49  35  58 SE17G23   29.98F
SLAYTON        FAIR      47  34  60 SE18G24   29.99F
$$
MNZ065>067-074>077-082>085-091>093-190700-
   South Central Minnesota

CITY           SKY/WX    TMP DP  RH WIND       PRES   REMARKS
MANKATO        FAIR      45  34  65 SE16      30.13S
NEW ULM        FAIR      46  34  61 SE16G23   30.08F
ST JAMES       FAIR      46  32  57 SE16      30.09F
FAIRMONT       FAIR      48  28  46 SE18      30.11S
GLENCOE        FAIR      44  31  60 E15       30.12S
FARIBAULT      FAIR      46  27  46 SE15      30.17S
OWATONNA       FAIR      45  30  57 SE13G18   30.17S
WASECA         FAIR      45  34  65 SE15      30.17R
ALBERT LEA     FAIR      46  34  61 SE16      30.16S
$$
MNZ078>079-086>088-094>096-190700-
   Southeast Minnesota

CITY           SKY/WX    TMP DP  RH WIND       PRES   REMARKS
ROCHESTER      FAIR      42  29  59 SE15      30.21S
6HR MIN TEMP:  41; 6HR MAX TEMP:  52;

RED WING       FAIR      46  27  46 E9        30.22R
STANTON        FAIR      46  28  48 SE14G23   30.17F
DODGE CENTER   FAIR      43  34  70 SE12      30.19S
WINONA         FAIR      43  30  61 S3        30.26S
AUSTIN         FAIR      43  32  65 SE9       30.19R
PRESTON        FAIR      44  30  57 SE8       30.23R
$$
ABBREVIATIONS USED IN REMARKS
   TC - TEMPERATURES IN CELSIUS
  WCI - WIND CHILL INDEX
   HX - HEAT INDEX
  VSB - VISIBILITY
$$



USA.gov is the U.S. government's official web portal to all federal, state and local government web resources and services.